Time,TemperatureF,DewpointF,PressureIn,WindDirection,WindDirectionDegrees,WindSpeedMPH,WindSpeedGustMPH,Humidity,HourlyPrecipIn,Conditions,Clouds,dailyrainin,SoftwareType,DateUTC
2013-06-30 00:11:00,68.6,52.0,29.86,NW,313,0.0,0.0,55,0.00,,,0.00,weatherlink.com 1.10,2013-06-30 07:11:00,
2013-06-30 00:26:00,68.1,52.0,29.86,NW,313,0.0,0.0,56,0.00,,,0.00,weatherlink.com 1.10,2013-06-30 07:26:00,
2013-06-30 00:42:00,68.7,51.0,29.87,NW,313,0.0,0.0,54,0.00,,,0.00,weatherlink.com 1.10,2013-06-30 07:42:00,
2013-06-30 00:57:00,69.4,51.0,29.87,NW,304,0.0,0.0,53,0.00,,,0.00,weatherlink.com 1.10,2013-06-30 07:57:00,
2013-06-30 01:12:00,69.1,52.0,29.87,WNW,303,0.0,0.0,54,0.00,,,0.00,weatherlink.com 1.10,2013-06-30 08:12:00,
2013-06-30 01:27:00,68.2,52.0,29.87,WNW,303,0.0,0.0,57,0.00,,,0.00,weatherlink.com 1.10,2013-06-30 08:27:00,
2013-06-30 01:42:00,67.7,52.0,29.87,WNW,303,0.0,0.0,58,0.00,,,0.00,weatherlink.com 1.10,2013-06-30 08:42:00,
2013-06-30 01:57:00,67.3,51.0,29.87,WNW,303,0.0,0.0,57,0.00,,,0.00,weatherlink.com 1.10,2013-06-30 08:57:00,
2013-06-30 02:14:00,67.5,51.0,29.86,WNW,303,0.0,0.0,55,0.00,,,0.00,weatherlink.com 1.10,2013-06-30 09:14:00,
2013-06-30 02:29:00,67.4,51.0,29.86,WNW,303,0.0,0.0,56,0.00,,,0.00,weatherlink.com 1.10,2013-06-30 09:29:00,
2013-06-30 02:44:00,66.5,52.0,29.86,WNW,303,0.0,0.0,60,0.00,,,0.00,weatherlink.com 1.10,2013-06-30 09:44:00,
2013-06-30 02:59:00,62.5,53.0,29.86,WNW,303,0.0,0.0,70,0.00,,,0.00,weatherlink.com 1.10,2013-06-30 09:59:00,
2013-06-30 03:14:00,61.7,53.0,29.86,WNW,303,0.0,0.0,73,0.00,,,0.00,weatherlink.com 1.10,2013-06-30 10:14:00,
2013-06-30 03:29:00,61.3,54.0,29.86,WNW,303,0.0,0.0,76,0.00,,,0.00,weatherlink.com 1.10,2013-06-30 10:29:00,
2013-06-30 03:44:00,60.9,54.0,29.86,WNW,303,0.0,0.0,77,0.00,,,0.00,weatherlink.com 1.10,2013-06-30 10:44:00,
2013-06-30 03:59:00,60.7,53.0,29.86,WNW,303,0.0,0.0,76,0.00,,,0.00,weatherlink.com 1.10,2013-06-30 10:59:00,
2013-06-30 04:14:00,61.3,53.0,29.86,WNW,302,0.0,0.0,75,0.00,,,0.00,weatherlink.com 1.10,2013-06-30 11:14:00,
2013-06-30 04:29:00,60.7,53.0,29.86,WNW,285,0.0,0.0,76,0.00,,,0.00,weatherlink.com 1.10,2013-06-30 11:29:00,
2013-06-30 04:44:00,60.8,53.0,29.86,West,277,0.0,0.0,76,0.00,,,0.00,weatherlink.com 1.10,2013-06-30 11:44:00,
2013-06-30 04:59:00,59.9,53.0,29.86,West,278,0.0,0.0,78,0.00,,,0.00,weatherlink.com 1.10,2013-06-30 11:59:00,
2013-06-30 05:14:00,60.0,53.0,29.86,West,278,0.0,0.0,79,0.00,,,0.00,weatherlink.com 1.10,2013-06-30 12:14:00,
2013-06-30 05:29:00,59.8,53.0,29.86,West,278,0.0,0.0,79,0.00,,,0.00,weatherlink.com 1.10,2013-06-30 12:29:00,
2013-06-30 05:45:00,59.7,53.0,29.86,WSW,254,0.0,0.0,79,0.00,,,0.00,weatherlink.com 1.10,2013-06-30 12:45:00,
2013-06-30 06:00:00,60.2,53.0,29.87,SW,214,0.0,1.0,78,0.00,,,0.00,weatherlink.com 1.10,2013-06-30 13:00:00,
2013-06-30 06:15:00,60.0,53.0,29.87,SSW,211,0.0,1.0,79,0.00,,,0.00,weatherlink.com 1.10,2013-06-30 13:15:00,
2013-06-30 06:30:00,60.6,54.0,29.87,SSW,211,0.0,0.0,79,0.00,,,0.00,weatherlink.com 1.10,2013-06-30 13:30:00,
2013-06-30 06:45:00,61.7,55.0,29.88,SSW,211,0.0,0.0,78,0.00,,,0.00,weatherlink.com 1.10,2013-06-30 13:45:00,
2013-06-30 07:01:00,63.0,56.0,29.88,SSW,211,0.0,0.0,77,0.00,,,0.00,weatherlink.com 1.10,2013-06-30 14:01:00,
2013-06-30 07:16:00,64.4,56.0,29.88,SSW,207,0.0,0.0,75,0.00,,,0.00,weatherlink.com 1.10,2013-06-30 14:16:00,
2013-06-30 07:31:00,66.2,56.0,29.88,SSW,208,0.0,0.0,69,0.00,,,0.00,weatherlink.com 1.10,2013-06-30 14:31:00,
2013-06-30 07:46:00,67.5,55.0,29.88,SSW,208,0.0,0.0,65,0.00,,,0.00,weatherlink.com 1.10,2013-06-30 14:46:00,
2013-06-30 08:01:00,68.6,55.0,29.88,SSW,207,0.0,0.0,62,0.00,,,0.00,weatherlink.com 1.10,2013-06-30 15:01:00,
2013-06-30 08:16:00,69.2,55.0,29.88,SSW,207,0.0,1.0,62,0.00,,,0.00,weatherlink.com 1.10,2013-06-30 15:16:00,
2013-06-30 08:31:00,70.4,54.0,29.88,SSW,208,0.0,3.0,57,0.00,,,0.00,weatherlink.com 1.10,2013-06-30 15:31:00,
2013-06-30 08:47:00,72.0,56.0,29.88,SSW,208,0.0,1.0,57,0.00,,,0.00,weatherlink.com 1.10,2013-06-30 15:47:00,
2013-06-30 09:02:00,72.7,55.0,29.88,SSW,207,0.0,3.0,54,0.00,,,0.00,weatherlink.com 1.10,2013-06-30 16:02:00,
2013-06-30 09:17:00,73.5,57.0,29.87,SSW,208,0.0,0.0,56,0.00,,,0.00,weatherlink.com 1.10,2013-06-30 16:17:00,
2013-06-30 09:32:00,74.7,57.0,29.86,SSW,207,0.0,1.0,54,0.00,,,0.00,weatherlink.com 1.10,2013-06-30 16:32:00,
2013-06-30 09:47:00,75.9,57.0,29.86,SSW,209,0.0,2.0,52,0.00,,,0.00,weatherlink.com 1.10,2013-06-30 16:47:00,
2013-06-30 10:02:00,77.5,57.0,29.86,SSW,213,0.0,2.0,49,0.00,,,0.00,weatherlink.com 1.10,2013-06-30 17:02:00,
2013-06-30 10:17:00,77.7,57.0,29.86,SW,218,0.0,2.0,49,0.00,,,0.00,weatherlink.com 1.10,2013-06-30 17:17:00,
2013-06-30 10:34:00,80.1,58.0,29.85,NNW,337,1.0,4.0,47,0.00,,,0.00,weatherlink.com 1.10,2013-06-30 17:34:00,
2013-06-30 10:49:00,81.7,58.0,29.85,NNE,24,0.0,2.0,45,0.00,,,0.00,weatherlink.com 1.10,2013-06-30 17:49:00,
2013-06-30 11:04:00,80.9,59.0,29.85,North,350,0.0,4.0,47,0.00,,,0.00,weatherlink.com 1.10,2013-06-30 18:04:00,
2013-06-30 11:18:00,81.6,58.0,29.84,NNW,346,0.0,4.0,45,0.00,,,0.00,weatherlink.com 1.10,2013-06-30 18:18:00,
2013-06-30 11:34:00,83.1,60.0,29.83,NNW,348,0.0,5.0,45,0.00,,,0.00,weatherlink.com 1.10,2013-06-30 18:34:00,
2013-06-30 11:49:00,85.9,60.0,29.82,NNE,12,0.0,6.0,41,0.00,,,0.00,weatherlink.com 1.10,2013-06-30 18:49:00,
2013-06-30 12:04:00,86.3,60.0,29.82,NW,319,5.0,7.0,41,0.00,,,0.00,weatherlink.com 1.10,2013-06-30 19:04:00,
2013-06-30 12:19:00,87.8,61.0,29.81,NNW,346,0.0,3.0,40,0.00,,,0.00,weatherlink.com 1.10,2013-06-30 19:19:00,
2013-06-30 12:34:00,89.2,60.0,29.81,North,11,0.0,5.0,37,0.00,,,0.00,weatherlink.com 1.10,2013-06-30 19:34:00,
2013-06-30 12:49:00,91.1,61.0,29.80,North,350,1.0,6.0,37,0.00,,,0.00,weatherlink.com 1.10,2013-06-30 19:49:00,
2013-06-30 13:04:00,89.7,60.0,29.79,NNW,331,1.0,6.0,37,0.00,,,0.00,weatherlink.com 1.10,2013-06-30 20:04:00,
2013-06-30 13:19:00,92.5,62.0,29.79,NNE,14,0.0,9.0,36,0.00,,,0.00,weatherlink.com 1.10,2013-06-30 20:19:00,
2013-06-30 13:34:00,93.3,63.0,29.78,NNW,334,3.0,7.0,36,0.00,,,0.00,weatherlink.com 1.10,2013-06-30 20:34:00,
2013-06-30 13:50:00,93.3,63.0,29.77,North,360,3.0,4.0,36,0.00,,,0.00,weatherlink.com 1.10,2013-06-30 20:50:00,
2013-06-30 14:05:00,95.2,60.0,29.77,NNW,341,0.0,6.0,31,0.00,,,0.00,weatherlink.com 1.10,2013-06-30 21:05:00,
2013-06-30 14:20:00,95.8,62.0,29.76,North,11,0.0,7.0,32,0.00,,,0.00,weatherlink.com 1.10,2013-06-30 21:20:00,
2013-06-30 14:35:00,97.1,60.0,29.76,North,355,1.0,7.0,29,0.00,,,0.00,weatherlink.com 1.10,2013-06-30 21:35:00,
2013-06-30 14:50:00,96.9,62.0,29.75,NNE,14,2.0,9.0,31,0.00,,,0.00,weatherlink.com 1.10,2013-06-30 21:50:00,
2013-06-30 15:05:00,96.2,61.0,29.75,NNW,327,2.0,8.0,31,0.00,,,0.00,weatherlink.com 1.10,2013-06-30 22:05:00,
2013-06-30 15:21:00,94.9,58.0,29.74,NW,313,6.0,10.0,29,0.00,,,0.00,weatherlink.com 1.10,2013-06-30 22:21:00,
2013-06-30 15:36:00,95.9,61.0,29.74,North,355,2.0,9.0,31,0.00,,,0.00,weatherlink.com 1.10,2013-06-30 22:36:00,
2013-06-30 15:51:00,96.2,58.0,29.73,NW,317,0.0,8.0,28,0.00,,,0.00,weatherlink.com 1.10,2013-06-30 22:51:00,
2013-06-30 16:06:00,96.2,57.0,29.73,NW,315,3.0,8.0,27,0.00,,,0.00,weatherlink.com 1.10,2013-06-30 23:06:00,
2013-06-30 16:21:00,95.8,62.0,29.72,NW,315,4.0,9.0,32,0.00,,,0.00,weatherlink.com 1.10,2013-06-30 23:21:00,
2013-06-30 16:36:00,97.8,60.0,29.71,North,360,3.0,8.0,28,0.00,,,0.00,weatherlink.com 1.10,2013-06-30 23:36:00,
2013-06-30 16:51:00,100.1,63.0,29.71,NNW,327,0.0,9.0,29,0.00,,,0.00,weatherlink.com 1.10,2013-06-30 23:51:00,
2013-06-30 17:07:00,100.1,65.0,29.70,NNE,21,4.0,12.0,32,0.00,,,0.00,weatherlink.com 1.10,2013-07-01 00:07:00,
2013-06-30 17:22:00,99.9,66.0,29.70,NNE,13,0.0,9.0,33,0.00,,,0.00,weatherlink.com 1.10,2013-07-01 00:22:00,
2013-06-30 17:37:00,98.4,65.0,29.70,North,10,10.0,13.0,33,0.00,,,0.00,weatherlink.com 1.10,2013-07-01 00:37:00,
2013-06-30 17:52:00,96.8,64.0,29.70,North,5,2.0,16.0,34,0.00,,,0.00,weatherlink.com 1.10,2013-07-01 00:52:00,
2013-06-30 18:07:00,95.9,64.0,29.70,NNE,14,7.0,14.0,35,0.00,,,0.00,weatherlink.com 1.10,2013-07-01 01:07:00,
2013-06-30 18:22:00,94.9,63.0,29.70,North,11,9.0,18.0,35,0.00,,,0.00,weatherlink.com 1.10,2013-07-01 01:22:00,
2013-06-30 18:39:00,93.9,62.0,29.70,NE,49,11.0,19.0,35,0.00,,,0.00,weatherlink.com 1.10,2013-07-01 01:39:00,
2013-06-30 18:54:00,92.8,63.0,29.70,NNW,343,6.0,20.0,37,0.00,,,0.00,weatherlink.com 1.10,2013-07-01 01:54:00,
2013-06-30 19:09:00,91.9,62.0,29.70,NNW,345,12.0,19.0,37,0.00,,,0.00,weatherlink.com 1.10,2013-07-01 02:09:00,
2013-06-30 19:24:00,91.1,62.0,29.70,NNE,18,10.0,18.0,38,0.00,,,0.00,weatherlink.com 1.10,2013-07-01 02:24:00,
2013-06-30 19:39:00,89.9,65.0,29.70,NNE,25,2.0,14.0,43,0.00,,,0.00,weatherlink.com 1.10,2013-07-01 02:39:00,
2013-06-30 19:54:00,88.9,62.0,29.70,NNE,19,6.0,17.0,40,0.00,,,0.00,weatherlink.com 1.10,2013-07-01 02:54:00,
2013-06-30 20:09:00,87.4,61.0,29.71,NNE,33,7.0,14.0,41,0.00,,,0.00,weatherlink.com 1.10,2013-07-01 03:09:00,
2013-06-30 20:24:00,86.0,60.0,29.71,NNE,22,5.0,13.0,42,0.00,,,0.00,weatherlink.com 1.10,2013-07-01 03:24:00,
2013-06-30 20:39:00,84.6,61.0,29.72,NNE,19,2.0,8.0,45,0.00,,,0.00,weatherlink.com 1.10,2013-07-01 03:39:00,
2013-06-30 20:54:00,83.0,60.0,29.72,NNE,20,5.0,11.0,46,0.00,,,0.00,weatherlink.com 1.10,2013-07-01 03:54:00,
2013-06-30 21:09:00,81.9,60.0,29.72,NE,42,3.0,10.0,47,0.00,,,0.00,weatherlink.com 1.10,2013-07-01 04:09:00,
2013-06-30 21:24:00,81.3,60.0,29.73,NNE,30,3.0,12.0,48,0.00,,,0.00,weatherlink.com 1.10,2013-07-01 04:24:00,
2013-06-30 21:39:00,80.2,60.0,29.74,NNE,29,2.0,8.0,50,0.00,,,0.00,weatherlink.com 1.10,2013-07-01 04:39:00,
2013-06-30 21:55:00,79.3,60.0,29.75,NNE,28,2.0,6.0,51,0.00,,,0.00,weatherlink.com 1.10,2013-07-01 04:55:00,
2013-06-30 22:10:00,79.0,59.0,29.75,NNE,23,3.0,10.0,50,0.00,,,0.00,weatherlink.com 1.10,2013-07-01 05:10:00,
2013-06-30 22:25:00,78.6,58.0,29.75,NNE,24,2.0,5.0,50,0.00,,,0.00,weatherlink.com 1.10,2013-07-01 05:25:00,
2013-06-30 22:40:00,77.5,58.0,29.75,North,11,0.0,3.0,52,0.00,,,0.00,weatherlink.com 1.10,2013-07-01 05:40:00,
2013-06-30 22:55:00,77.2,58.0,29.75,NNE,20,2.0,4.0,52,0.00,,,0.00,weatherlink.com 1.10,2013-07-01 05:55:00,
2013-06-30 23:10:00,77.3,58.0,29.75,North,11,0.0,2.0,52,0.00,,,0.00,weatherlink.com 1.10,2013-07-01 06:10:00,
2013-06-30 23:25:00,76.8,58.0,29.75,North,11,0.0,1.0,53,0.00,,,0.00,weatherlink.com 1.10,2013-07-01 06:25:00,
2013-06-30 23:41:00,76.0,59.0,29.75,North,11,0.0,1.0,55,0.00,,,0.00,weatherlink.com 1.10,2013-07-01 06:41:00,
2013-06-30 23:56:00,75.1,58.0,29.75,North,11,0.0,0.0,56,0.00,,,0.00,weatherlink.com 1.10,2013-07-01 06:56:00,